Voltar ao catálogo

STARLINK-4599

AtivoComunicaçõesVLEO
NORAD 53631·PAYLOAD·🇺🇸 United States

Lançado Aug 28, 2022 de Cape Canaveral Space Force Station

Loading…

Próximas Passagens (próximas 24 horas)

TLE

AtualizadoSource: CelesTrak SupGP

Época: Sep 14, 2026, 21:44 UTC

1 53631C 22104AV  26257.90604167  .00015659  00000+0  44821-3 0  2576
2 53631  53.1587  93.7657 0001239  84.6329  42.0811 15.35378104    17

Acompanhe STARLINK-4599 em tempo real com AllMySat

Download on the App Store